Flag for Japan Weather past 2 weeks in Sendai, Japan

Now
59 °F

Passing clouds.


Feels Like: 58 °F
Forecast: 56 / 68 °F
Wind: 7 mph from East

Location: Sendai Airport

Current Time: May 28, 2015 at 3:43:33 AM

Latest Report: May 27, 2015 at 9:00 PM


Visibility: N/A

Pressure: 29.98 "Hg

Humidity: 82%

Dew point: 54 °F

Location of SendaiLocation

Historic Weather in Sendai — Graph

°F

Sendai temperature yesterday

Maximum temperature yesterday: 70 °F (at 8:00 AM)
Minimum temperature yesterday: 59 °F (at 6:00 AM)
Average temperature yesterday: 64 °F

Past Weeks' High & Low Weather Summary

 TemperatureHumidityPressure
High84 °F (May 14, 1:00 PM)100% (May 12, 9:00 PM)29.98 "Hg (May 12, 9:00 PM)
Low54 °F (May 18, 6:00 AM)17% (May 17, 2:04 PM)29.50 "Hg (May 13, 6:00 AM)
Average67 °F60%29.75 "Hg
* Reported May 12 9:00 PM — May 27 9:00 PM, Sendai, Weather by CustomWeather, © 2015

Note: Actual official high and low records may vary slightly from our data, if they occured in-between our weather recording intervals... More about our weather records

Advertising

Sendai weather history for previous 24 hours

 ConditionsComfort  
Time TempWeatherWind HumidityBarometerVisibility
9:00 PM
Wed, May 27
59 °FPassing clouds.7 mph82%29.98 "HgN/A
8:00 PM59 °FPassing clouds.8 mph77%29.98 "HgN/A
7:00 PM59 °FPassing clouds.8 mph77%29.95 "HgN/A
6:00 PM59 °FPartly sunny.8 mph82%29.95 "HgN/A
5:00 PM61 °FBroken clouds.9 mph77%29.92 "HgN/A
4:00 PM61 °FPassing clouds.12 mph72%29.92 "HgN/A
3:00 PM63 °FPartly sunny.14 mph77%29.89 "HgN/A
2:00 PM64 °FPartly sunny.15 mph73%29.89 "HgN/A
1:00 PM66 °FPartly sunny.20 mph64%29.86 "HgN/A
12:00 PM68 °FSunny.14 mph53%29.83 "Hg10 mi
11:00 AM70 °FSunny.10 mph57%29.83 "Hg10 mi
10:00 AM68 °FSunny.9 mph64%29.83 "Hg10 mi
9:00 AM68 °FSunny.6 mph53%29.83 "Hg10 mi
8:00 AM70 °FPartly sunny.2 mph57%29.83 "HgN/A
7:00 AM64 °FPassing clouds.3 mph68%29.83 "HgN/A
6:00 AM59 °FSunny.2 mph88%29.83 "Hg10 mi
Weather by CustomWeather, © 2015

See weather overviewHow to use our weather pages